WXM80 ListenWXM80 Stop

You find our weather info also at:

UK Metoffice

WeatherCloud

Weather Underground

Northeastern Weather Network

AWEKAS

Citizen Weather Observer Program (CWOP)

HAMweather, WeatherForYou, PWS Weather


Weather Underground History page Text

Daily Summary for May 4, 2016 Units:  English    Metric   Both
« Previous Day
Next Day »
Daily Weekly Monthly Yearly Custom
  High: Low: Average:
Temperature: 50.3 °F 47.9 °F 49 °F
Dew Point: 49.8 °F 45.4 °F 47.3 °F
Humidity: 98 % 89 % 94 %
Wind Speed: 12.0 mph 0.0 mph 4.9 mph
Wind Gust: 15.0 mph - -
Wind:- - East
Pressure: 29.82 in 29.68 in -
Precipitation: 0.14 in    
Historical Graphs
 
 
Tabular Data for May 4, 2016
Time Temperature Dew Point Pressure Wind Wind Speed Wind Gust Humidity Rainfall Rate (Hourly)
00:02 50.3 °F 49.8 °F 29.81 in ENE 0.5 mph 1.2 mph 98 % 0.00 in
00:07 50.3 °F 49.8 °F 29.81 in ENE 0.5 mph 2.3 mph 98 % 0.00 in
00:12 50.3 °F 49.8 °F 29.81 in Calm   1.2 mph 98 % 0.00 in
00:17 50.3 °F 49.8 °F 29.81 in Calm     98 % 0.00 in
00:22 50.3 °F 49.8 °F 29.81 in Calm     98 % 0.00 in
00:27 50.3 °F 49.8 °F 29.81 in Calm     98 % 0.00 in
00:32 50.3 °F 49.8 °F 29.82 in SSE 0.4 mph 3.5 mph 98 % 0.00 in
00:37 50.2 °F 49.7 °F 29.82 in SSE 2.7 mph 3.5 mph 98 % 0.00 in
00:43 50.1 °F 49.6 °F 29.82 in SE 3.2 mph 5.0 mph 98 % 0.00 in
00:48 50.1 °F 49.6 °F 29.81 in SSE 0.6 mph 2.3 mph 98 % 0.00 in
00:53 50.0 °F 49.5 °F 29.81 in SSE 0.2 mph 1.2 mph 98 % 0.00 in
00:58 49.9 °F 49.4 °F 29.81 in SE 0.6 mph 3.5 mph 98 % 0.00 in
01:03 49.9 °F 49.4 °F 29.81 in SE 0.7 mph 3.5 mph 98 % 0.00 in
01:13 49.7 °F 48.9 °F 29.81 in SE 0.1 mph 1.2 mph 97 % 0.00 in
01:18 49.6 °F 48.8 °F 29.81 in Calm     97 % 0.00 in
01:23 49.6 °F 48.8 °F 29.81 in Calm     97 % 0.00 in
01:34 49.5 °F 48.7 °F 29.80 in Calm     97 % 0.00 in
01:39 49.5 °F 48.7 °F 29.80 in Calm     97 % 0.00 in
01:44 49.4 °F 48.6 °F 29.80 in Calm     97 % 0.00 in
01:49 49.4 °F 48.6 °F 29.80 in Calm     97 % 0.00 in
01:54 49.4 °F 48.6 °F 29.79 in Calm     97 % 0.00 in
01:59 49.4 °F 48.6 °F 29.79 in SE 0.5 mph 1.2 mph 97 % 0.00 in
02:04 49.4 °F 48.9 °F 29.79 in SE 0.1 mph 1.2 mph 98 % 0.00 in
02:09 49.3 °F 48.8 °F 29.79 in SE 0.3 mph 1.2 mph 98 % 0.00 in
02:19 49.2 °F 48.7 °F 29.79 in SE 1.4 mph 2.3 mph 98 % 0.00 in
02:25 49.2 °F 48.7 °F 29.79 in SE 0.5 mph 2.3 mph 98 % 0.00 in
02:30 49.1 °F 48.6 °F 29.79 in SE 0.5 mph 1.2 mph 98 % 0.00 in
02:35 49.1 °F 48.6 °F 29.79 in SE 0.1 mph 1.2 mph 98 % 0.00 in
02:40 49.1 °F 48.6 °F 29.78 in SE 0.1 mph 1.2 mph 98 % 0.00 in
02:45 49.1 °F 48.3 °F 29.79 in SE 0.4 mph 1.2 mph 97 % 0.00 in
02:50 49.0 °F 48.2 °F 29.79 in Calm   1.2 mph 97 % 0.00 in
02:55 49.0 °F 48.2 °F 29.78 in Calm     97 % 0.00 in
03:00 49.0 °F 48.2 °F 29.78 in SE 0.3 mph 2.3 mph 97 % 0.00 in
03:05 49.0 °F 48.2 °F 29.78 in NE 0.4 mph 1.2 mph 97 % 0.00 in
03:10 49.0 °F 48.2 °F 29.78 in ENE 1.6 mph 3.5 mph 97 % 0.00 in
03:16 48.9 °F 48.1 °F 29.79 in NE 3.0 mph 4.6 mph 97 % 0.00 in
03:21 48.8 °F 48.0 °F 29.79 in ENE 0.7 mph 3.5 mph 97 % 0.00 in
03:26 48.8 °F 48.0 °F 29.79 in ENE 1.7 mph 3.5 mph 97 % 0.00 in
03:31 48.7 °F 47.9 °F 29.79 in ENE 2.3 mph 3.5 mph 97 % 0.00 in
03:36 48.7 °F 47.9 °F 29.79 in ENE 4.2 mph 6.9 mph 97 % 0.00 in
03:41 48.7 °F 47.9 °F 29.79 in ENE 2.9 mph 3.5 mph 97 % 0.00 in
03:46 48.7 °F 47.9 °F 29.79 in ENE 3.7 mph 4.6 mph 97 % 0.00 in
03:51 48.6 °F 47.5 °F 29.80 in ENE 2.6 mph 3.5 mph 96 % 0.00 in
03:56 48.6 °F 47.5 °F 29.79 in ENE 3.0 mph 3.5 mph 96 % 0.00 in
04:01 48.5 °F 47.4 °F 29.79 in ENE 3.1 mph 5.8 mph 96 % 0.00 in
04:07 48.5 °F 47.4 °F 29.79 in ENE 1.7 mph 3.5 mph 96 % 0.00 in
04:12 48.5 °F 47.4 °F 29.79 in ENE 1.7 mph 3.5 mph 96 % 0.00 in
04:17 48.5 °F 47.4 °F 29.79 in ENE 1.8 mph 3.5 mph 96 % 0.00 in
04:22 48.5 °F 47.1 °F 29.79 in ENE 3.8 mph 7.0 mph 95 % 0.00 in
04:27 48.4 °F 47.0 °F 29.79 in NE 2.9 mph 4.6 mph 95 % 0.00 in
04:32 48.4 °F 47.0 °F 29.79 in ENE 2.8 mph 4.0 mph 95 % 0.00 in
04:37 48.4 °F 47.0 °F 29.79 in ENE 3.2 mph 7.0 mph 95 % 0.00 in
04:42 48.5 °F 46.9 °F 29.79 in NE 2.5 mph 3.5 mph 94 % 0.00 in
04:47 48.5 °F 46.9 °F 29.79 in ENE 2.7 mph 4.6 mph 94 % 0.00 in
04:52 48.5 °F 46.9 °F 29.78 in ENE 4.7 mph 8.1 mph 94 % 0.00 in
04:58 48.5 °F 46.9 °F 29.78 in East 2.4 mph 4.6 mph 94 % 0.00 in
05:03 48.6 °F 47.2 °F 29.78 in ENE 3.0 mph 5.0 mph 95 % 0.00 in
05:08 48.6 °F 47.0 °F 29.78 in ENE 2.2 mph 3.5 mph 94 % 0.00 in
05:13 48.6 °F 47.2 °F 29.78 in ENE 3.0 mph 5.8 mph 95 % 0.00 in
05:18 48.6 °F 47.2 °F 29.78 in ENE 2.1 mph 4.0 mph 95 % 0.00 in
05:23 48.6 °F 47.2 °F 29.79 in ENE 2.2 mph 3.5 mph 95 % 0.00 in
05:28 48.7 °F 47.3 °F 29.79 in ENE 2.0 mph 3.5 mph 95 % 0.00 in
05:33 48.6 °F 47.2 °F 29.79 in ENE 2.2 mph 3.5 mph 95 % 0.00 in
05:38 48.7 °F 47.3 °F 29.79 in NE 2.2 mph 3.5 mph 95 % 0.00 in
05:43 48.7 °F 47.3 °F 29.79 in ENE 1.4 mph 2.3 mph 95 % 0.00 in
05:49 48.6 °F 47.2 °F 29.79 in ENE 1.9 mph 3.5 mph 95 % 0.00 in
05:54 48.6 °F 47.2 °F 29.79 in East 2.7 mph 5.0 mph 95 % 0.00 in
05:59 48.7 °F 47.3 °F 29.79 in East 3.2 mph 4.6 mph 95 % 0.00 in
06:04 48.7 °F 47.3 °F 29.79 in East 2.5 mph 3.5 mph 95 % 0.00 in
06:09 48.7 °F 47.3 °F 29.79 in East 1.7 mph 3.5 mph 95 % 0.00 in
06:19 48.8 °F 47.4 °F 29.81 in ENE 1.3 mph 2.3 mph 95 % 0.00 in
06:24 48.8 °F 47.4 °F 29.80 in ENE 2.8 mph 3.5 mph 95 % 0.00 in
06:29 48.8 °F 47.4 °F 29.80 in ENE 3.7 mph 4.6 mph 95 % 0.00 in
06:34 48.8 °F 47.4 °F 29.80 in ENE 1.8 mph 3.5 mph 95 % 0.00 in
06:40 48.9 °F 47.5 °F 29.80 in ENE 1.8 mph 2.3 mph 95 % 0.00 in
06:45 49.0 °F 47.6 °F 29.80 in ENE 1.6 mph 3.5 mph 95 % 0.00 in
06:50 49.0 °F 47.6 °F 29.80 in ENE 1.4 mph 3.5 mph 95 % 0.00 in
06:55 49.1 °F 47.7 °F 29.81 in ENE 2.6 mph 4.6 mph 95 % 0.00 in
07:00 49.0 °F 47.6 °F 29.81 in ENE 2.0 mph 4.6 mph 95 % 0.00 in
07:05 49.0 °F 47.6 °F 29.81 in ENE 1.8 mph 3.5 mph 95 % 0.00 in
07:10 49.0 °F 47.3 °F 29.81 in ENE 1.4 mph 3.5 mph 94 % 0.00 in
07:15 49.1 °F 47.4 °F 29.81 in NE 2.7 mph 4.6 mph 94 % 0.00 in
07:20 49.1 °F 47.4 °F 29.81 in ENE 5.1 mph 9.2 mph 94 % 0.00 in
07:25 49.1 °F 47.4 °F 29.81 in ENE 5.3 mph 6.9 mph 94 % 0.00 in
07:31 49.0 °F 47.1 °F 29.80 in East 3.2 mph 4.6 mph 93 % 0.00 in
07:36 49.0 °F 47.1 °F 29.80 in ENE 2.8 mph 4.6 mph 93 % 0.00 in
07:41 49.0 °F 46.8 °F 29.80 in ENE 4.0 mph 6.9 mph 92 % 0.00 in
07:46 49.0 °F 46.8 °F 29.80 in East 2.1 mph 5.8 mph 92 % 0.00 in
07:51 49.1 °F 46.9 °F 29.80 in ENE 2.6 mph 5.8 mph 92 % 0.00 in
07:56 49.1 °F 46.6 °F 29.80 in ENE 3.5 mph 10.4 mph 91 % 0.00 in
08:01 49.1 °F 46.6 °F 29.80 in East 3.0 mph 5.0 mph 91 % 0.00 in
08:06 49.1 °F 46.6 °F 29.80 in NE 3.2 mph 7.0 mph 91 % 0.00 in
08:11 49.1 °F 46.6 °F 29.80 in East 3.7 mph 5.0 mph 91 % 0.00 in
08:17 49.2 °F 46.7 °F 29.79 in NE 3.2 mph 4.6 mph 91 % 0.00 in
08:22 49.2 °F 46.7 °F 29.78 in East 3.4 mph 5.8 mph 91 % 0.00 in
08:27 49.3 °F 46.8 °F 29.78 in East 3.9 mph 5.0 mph 91 % 0.00 in
08:32 49.4 °F 46.9 °F 29.78 in ENE 5.3 mph 8.0 mph 91 % 0.00 in
08:37 49.5 °F 46.7 °F 29.78 in ENE 4.6 mph 7.0 mph 90 % 0.00 in
08:42 49.6 °F 46.8 °F 29.79 in East 3.6 mph 5.8 mph 90 % 0.00 in
08:47 49.6 °F 46.8 °F 29.78 in ENE 3.1 mph 4.0 mph 90 % 0.00 in
08:52 49.7 °F 46.9 °F 29.78 in East 4.7 mph 5.8 mph 90 % 0.00 in
08:57 49.7 °F 47.2 °F 29.78 in ENE 4.3 mph 8.0 mph 91 % 0.00 in
09:02 49.7 °F 46.9 °F 29.78 in East 4.9 mph 7.0 mph 90 % 0.00 in
09:08 49.6 °F 46.8 °F 29.78 in ENE 5.1 mph 10.4 mph 90 % 0.00 in
09:18 49.6 °F 47.1 °F 29.78 in East 5.6 mph 7.0 mph 91 % 0.00 in
09:23 49.6 °F 46.8 °F 29.79 in ENE 5.0 mph 8.1 mph 90 % 0.00 in
09:28 49.5 °F 46.7 °F 29.79 in ENE 4.6 mph 9.2 mph 90 % 0.00 in
09:33 49.4 °F 46.9 °F 29.79 in ENE 4.9 mph 8.1 mph 91 % 0.00 in
09:38 49.3 °F 46.8 °F 29.79 in East 5.2 mph 8.1 mph 91 % 0.00 in
09:43 49.2 °F 46.7 °F 29.80 in East 4.2 mph 10.4 mph 91 % 0.00 in
09:48 49.2 °F 46.7 °F 29.80 in ENE 5.6 mph 11.5 mph 91 % 0.00 in
09:53 49.1 °F 46.9 °F 29.80 in NE 5.8 mph 10.4 mph 92 % 0.00 in
09:59 49.1 °F 46.9 °F 29.80 in East 5.6 mph 8.1 mph 92 % 0.00 in
10:04 49.0 °F 46.8 °F 29.79 in East 7.6 mph 12.0 mph 92 % 0.00 in
10:09 49.0 °F 47.1 °F 29.79 in ENE 6.6 mph 9.2 mph 93 % 0.00 in
10:14 48.8 °F 46.9 °F 29.80 in East 8.9 mph 11.5 mph 93 % 0.00 in
10:19 48.7 °F 46.8 °F 29.79 in East 5.4 mph 8.1 mph 93 % 0.00 in
10:24 48.6 °F 47.0 °F 29.80 in ENE 6.1 mph 10.4 mph 94 % 0.00 in
10:29 48.5 °F 46.6 °F 29.81 in East 8.8 mph 12.7 mph 93 % 0.00 in
10:34 48.5 °F 46.6 °F 29.80 in ENE 7.6 mph 9.2 mph 93 % 0.00 in
10:39 48.5 °F 46.6 °F 29.80 in East 6.2 mph 8.1 mph 93 % 0.00 in
10:44 48.5 °F 46.6 °F 29.79 in East 6.3 mph 8.1 mph 93 % 0.00 in
10:50 48.7 °F 47.1 °F 29.80 in East 6.1 mph 8.1 mph 94 % 0.00 in
10:55 48.6 °F 46.7 °F 29.80 in East 6.3 mph 11.5 mph 93 % 0.00 in
11:00 48.5 °F 46.6 °F 29.80 in ENE 6.3 mph 11.0 mph 93 % 0.00 in
11:05 48.5 °F 46.9 °F 29.79 in East 7.2 mph 11.5 mph 94 % 0.00 in
11:10 48.5 °F 46.6 °F 29.79 in East 7.8 mph 11.5 mph 93 % 0.00 in
11:15 48.7 °F 46.8 °F 29.79 in East 6.2 mph 9.2 mph 93 % 0.00 in
11:20 48.8 °F 46.9 °F 29.79 in East 6.6 mph 9.0 mph 93 % 0.00 in
11:25 49.0 °F 47.1 °F 29.79 in ENE 7.0 mph 10.0 mph 93 % 0.00 in
11:30 49.0 °F 47.1 °F 29.79 in NE 5.5 mph 8.1 mph 93 % 0.00 in
11:35 49.0 °F 46.8 °F 29.79 in NE 8.9 mph 15.0 mph 92 % 0.00 in
11:41 49.1 °F 46.9 °F 29.79 in East 6.9 mph 11.5 mph 92 % 0.00 in
11:46 49.2 °F 47.0 °F 29.78 in NE 6.4 mph 10.0 mph 92 % 0.00 in
11:51 49.2 °F 47.3 °F 29.78 in East 9.0 mph 12.0 mph 93 % 0.00 in
11:56 49.3 °F 47.4 °F 29.78 in East 7.1 mph 9.2 mph 93 % 0.00 in
12:01 49.4 °F 47.5 °F 29.78 in East 6.8 mph 9.2 mph 93 % 0.00 in
12:06 49.6 °F 47.9 °F 29.77 in East 7.0 mph 10.4 mph 94 % 0.00 in
12:11 49.7 °F 48.0 °F 29.77 in East 7.8 mph 11.5 mph 94 % 0.00 in
12:16 49.5 °F 47.6 °F 29.77 in East 7.0 mph 8.1 mph 93 % 0.00 in
12:21 49.4 °F 47.5 °F 29.77 in ENE 7.1 mph 9.2 mph 93 % 0.00 in
12:26 49.4 °F 47.7 °F 29.77 in East 7.5 mph 9.2 mph 94 % 0.00 in
12:32 49.4 °F 47.7 °F 29.77 in ENE 6.9 mph 10.4 mph 94 % 0.00 in
12:37 49.6 °F 47.9 °F 29.77 in East 6.5 mph 11.5 mph 94 % 0.00 in
12:42 49.9 °F 48.2 °F 29.76 in ENE 8.1 mph 10.4 mph 94 % 0.00 in
12:47 50.0 °F 48.1 °F 29.76 in ENE 7.0 mph 10.4 mph 93 % 0.00 in
12:52 50.0 °F 48.1 °F 29.76 in ENE 7.6 mph 10.4 mph 93 % 0.00 in
12:57 49.9 °F 47.7 °F 29.76 in East 8.4 mph 10.4 mph 92 % 0.00 in
13:02 49.8 °F 47.6 °F 29.76 in East 7.8 mph 11.5 mph 92 % 0.00 in
13:07 49.6 °F 47.4 °F 29.75 in East 8.1 mph 10.0 mph 92 % 0.00 in
13:12 49.6 °F 47.4 °F 29.75 in ENE 7.5 mph 11.5 mph 92 % 0.00 in
13:17 49.6 °F 47.7 °F 29.74 in East 7.1 mph 9.2 mph 93 % 0.00 in
13:23 49.6 °F 47.7 °F 29.74 in ENE 8.3 mph 15.0 mph 93 % 0.00 in
13:28 49.6 °F 47.4 °F 29.73 in ENE 9.0 mph 14.0 mph 92 % 0.00 in
13:33 49.6 °F 47.4 °F 29.73 in ENE 8.4 mph 14.0 mph 92 % 0.00 in
13:38 49.6 °F 47.4 °F 29.73 in East 8.6 mph 10.0 mph 92 % 0.00 in
13:43 49.8 °F 47.6 °F 29.73 in East 8.0 mph 11.5 mph 92 % 0.00 in
13:48 49.9 °F 47.4 °F 29.73 in ENE 9.2 mph 12.7 mph 91 % 0.00 in
13:53 50.0 °F 47.2 °F 29.73 in East 8.0 mph 11.5 mph 90 % 0.00 in
13:58 50.0 °F 47.2 °F 29.74 in East 7.5 mph 11.5 mph 90 % 0.00 in
14:03 50.0 °F 47.2 °F 29.74 in East 7.7 mph 10.4 mph 90 % 0.00 in
14:08 50.1 °F 47.0 °F 29.73 in East 8.1 mph 10.4 mph 89 % 0.00 in
14:14 50.1 °F 47.0 °F 29.73 in East 7.7 mph 10.4 mph 89 % 0.00 in
14:19 50.1 °F 47.0 °F 29.73 in East 9.1 mph 11.5 mph 89 % 0.00 in
14:24 50.1 °F 47.0 °F 29.73 in East 7.7 mph 9.2 mph 89 % 0.00 in
14:29 50.2 °F 47.1 °F 29.73 in SE 7.3 mph 10.0 mph 89 % 0.00 in
14:34 50.1 °F 47.0 °F 29.73 in ENE 6.5 mph 9.2 mph 89 % 0.00 in
14:39 50.2 °F 47.1 °F 29.73 in East 5.6 mph 6.9 mph 89 % 0.00 in
14:44 50.2 °F 47.4 °F 29.73 in East 5.3 mph 6.9 mph 90 % 0.00 in
14:49 50.2 °F 47.4 °F 29.74 in East 4.9 mph 6.9 mph 90 % 0.00 in
14:54 50.0 °F 47.5 °F 29.73 in East 4.9 mph 6.9 mph 91 % 0.01 in
14:59 49.9 °F 47.4 °F 29.73 in East 3.9 mph 6.9 mph 91 % 0.01 in
15:05 49.7 °F 47.5 °F 29.73 in East 4.6 mph 9.2 mph 92 % 0.01 in
15:10 49.6 °F 47.7 °F 29.73 in East 5.9 mph 5.9 mph 93 % 0.01 in
15:15 49.4 °F 47.2 °F 29.72 in ENE 6.5 mph 10.4 mph 92 % 0.01 in
15:20 49.3 °F 47.4 °F 29.72 in East 4.7 mph 6.9 mph 93 % 0.01 in
15:25 49.2 °F 47.3 °F 29.72 in East 5.3 mph 6.9 mph 93 % 0.01 in
15:30 49.1 °F 47.2 °F 29.72 in East 3.9 mph 6.9 mph 93 % 0.02 in
15:35 49.0 °F 47.3 °F 29.72 in East 5.9 mph 8.1 mph 94 % 0.02 in
15:40 48.9 °F 47.2 °F 29.72 in East 5.1 mph 7.0 mph 94 % 0.02 in
15:45 48.9 °F 47.2 °F 29.72 in East 4.7 mph 6.9 mph 94 % 0.02 in
15:50 48.9 °F 47.5 °F 29.72 in East 4.6 mph 5.8 mph 95 % 0.03 in
15:56 48.9 °F 47.5 °F 29.72 in East 4.5 mph 6.9 mph 95 % 0.02 in
16:01 48.8 °F 47.4 °F 29.72 in East 4.6 mph 6.0 mph 95 % 0.03 in
16:06 48.8 °F 47.4 °F 29.71 in East 4.4 mph 5.8 mph 95 % 0.03 in
16:08 48.8 °F 47.4 °F 29.71 in East 4.7 mph 5.8 mph 95 % 0.03 in
16:13 48.8 °F 47.4 °F 29.70 in ENE 3.7 mph 5.8 mph 95 % 0.04 in
16:18 48.8 °F 47.7 °F 29.70 in ENE 3.0 mph 4.6 mph 96 % 0.05 in
16:23 48.8 °F 47.7 °F 29.72 in ENE 2.0 mph 3.5 mph 96 % 0.05 in
16:28 48.8 °F 47.7 °F 29.71 in East 4.3 mph 5.0 mph 96 % 0.06 in
16:34 48.8 °F 47.7 °F 29.70 in NE 3.7 mph 6.9 mph 96 % 0.06 in
16:39 48.7 °F 47.6 °F 29.70 in ENE 2.8 mph 5.8 mph 96 % 0.07 in
16:44 48.8 °F 47.7 °F 29.71 in NE 2.3 mph 4.6 mph 96 % 0.07 in
16:49 48.8 °F 47.7 °F 29.70 in East 3.8 mph 5.0 mph 96 % 0.07 in
16:54 48.9 °F 47.8 °F 29.70 in East 4.8 mph 6.9 mph 96 % 0.08 in
16:59 49.0 °F 48.2 °F 29.70 in ENE 3.0 mph 4.6 mph 97 % 0.08 in
17:04 49.0 °F 48.2 °F 29.71 in ESE 4.5 mph 5.0 mph 97 % 0.07 in
17:09 48.9 °F 48.1 °F 29.71 in East 4.6 mph 5.8 mph 97 % 0.07 in
17:14 48.9 °F 48.1 °F 29.71 in East 4.0 mph 5.8 mph 97 % 0.07 in
17:19 49.0 °F 48.2 °F 29.70 in ENE 2.8 mph 4.6 mph 97 % 0.06 in
17:25 49.1 °F 48.3 °F 29.70 in ENE 3.1 mph 4.6 mph 97 % 0.06 in
17:30 49.2 °F 48.4 °F 29.70 in East 3.8 mph 8.1 mph 97 % 0.06 in
17:35 49.2 °F 48.4 °F 29.71 in ENE 3.9 mph 5.8 mph 97 % 0.05 in
17:40 49.1 °F 48.3 °F 29.70 in ENE 4.4 mph 7.0 mph 97 % 0.04 in
17:45 49.0 °F 48.2 °F 29.70 in ENE 4.3 mph 7.0 mph 97 % 0.03 in
17:50 48.9 °F 48.1 °F 29.70 in ENE 6.2 mph 9.2 mph 97 % 0.03 in
17:55 48.8 °F 48.0 °F 29.70 in ENE 5.8 mph 9.2 mph 97 % 0.02 in
18:00 48.8 °F 48.0 °F 29.69 in NE 9.0 mph 13.8 mph 97 % 0.02 in
18:05 48.8 °F 48.0 °F 29.68 in East 12.0 mph 15.0 mph 97 % 0.02 in
18:16 48.7 °F 47.9 °F 29.70 in ENE 6.9 mph 9.2 mph 97 % 0.02 in
18:21 48.7 °F 47.9 °F 29.69 in East 6.6 mph 10.0 mph 97 % 0.02 in
18:26 48.7 °F 47.9 °F 29.69 in East 7.1 mph 11.5 mph 97 % 0.01 in
18:31 48.6 °F 47.8 °F 29.70 in ENE 7.3 mph 11.5 mph 97 % 0.01 in
18:36 48.4 °F 47.6 °F 29.70 in ENE 7.7 mph 10.4 mph 97 % 0.01 in
18:41 48.4 °F 47.6 °F 29.71 in ENE 9.8 mph 15.0 mph 97 % 0.01 in
18:46 48.4 °F 47.6 °F 29.71 in ENE 4.4 mph 5.8 mph 97 % 0.01 in
18:51 48.4 °F 47.6 °F 29.71 in East 4.6 mph 6.0 mph 97 % 0.01 in
18:56 48.4 °F 47.6 °F 29.71 in East 5.9 mph 8.1 mph 97 % 0.01 in
19:01 48.3 °F 47.5 °F 29.71 in ENE 4.2 mph 6.9 mph 97 % 0.01 in
19:07 48.3 °F 47.5 °F 29.72 in ENE 4.6 mph 9.2 mph 97 % 0.00 in
19:12 48.2 °F 47.4 °F 29.72 in ENE 4.3 mph 6.9 mph 97 % 0.00 in
19:17 48.2 °F 47.4 °F 29.72 in ENE 4.0 mph 11.5 mph 97 % 0.00 in
19:22 48.2 °F 47.4 °F 29.73 in ENE 4.9 mph 8.1 mph 97 % 0.00 in
19:27 48.2 °F 47.1 °F 29.73 in ESE 6.0 mph 9.2 mph 96 % 0.00 in
19:32 48.1 °F 47.0 °F 29.73 in East 7.7 mph 10.0 mph 96 % 0.00 in
19:37 48.1 °F 47.0 °F 29.72 in NE 7.8 mph 11.5 mph 96 % 0.00 in
19:42 48.1 °F 47.0 °F 29.72 in East 6.1 mph 9.2 mph 96 % 0.00 in
19:47 48.1 °F 47.0 °F 29.73 in ENE 8.9 mph 12.7 mph 96 % 0.00 in
19:52 48.0 °F 46.9 °F 29.73 in East 8.2 mph 13.8 mph 96 % 0.00 in
19:58 48.0 °F 46.9 °F 29.73 in ENE 9.3 mph 10.4 mph 96 % 0.00 in
20:08 47.9 °F 46.8 °F 29.73 in ENE 8.7 mph 13.8 mph 96 % 0.00 in
20:13 47.9 °F 46.8 °F 29.74 in ENE 8.1 mph 11.5 mph 96 % 0.00 in
20:18 48.0 °F 46.9 °F 29.74 in ENE 7.0 mph 11.5 mph 96 % 0.00 in
20:23 48.0 °F 46.9 °F 29.74 in East 8.0 mph 11.5 mph 96 % 0.00 in
20:28 48.1 °F 47.0 °F 29.74 in NE 7.2 mph 11.5 mph 96 % 0.00 in
20:33 48.0 °F 46.6 °F 29.75 in East 5.9 mph 11.5 mph 95 % 0.00 in
20:38 48.0 °F 46.4 °F 29.75 in East 8.2 mph 13.8 mph 94 % 0.00 in
20:43 48.0 °F 46.4 °F 29.75 in ENE 7.4 mph 11.5 mph 94 % 0.00 in
20:49 48.0 °F 46.4 °F 29.74 in NE 8.6 mph 11.5 mph 94 % 0.00 in
20:54 48.1 °F 46.2 °F 29.74 in ENE 8.4 mph 13.8 mph 93 % 0.00 in
20:59 48.1 °F 46.2 °F 29.74 in ENE 4.2 mph 8.1 mph 93 % 0.00 in
21:04 48.1 °F 45.9 °F 29.74 in ENE 10.5 mph 13.8 mph 92 % 0.00 in
21:09 48.1 °F 45.9 °F 29.74 in ENE 8.9 mph 13.8 mph 92 % 0.00 in
21:14 48.1 °F 45.9 °F 29.74 in ENE 9.2 mph 11.0 mph 92 % 0.00 in
21:19 48.1 °F 45.6 °F 29.74 in ENE 8.3 mph 15.0 mph 91 % 0.00 in
21:24 48.1 °F 45.9 °F 29.73 in East 9.1 mph 13.0 mph 92 % 0.00 in
21:29 48.2 °F 46.0 °F 29.73 in ENE 9.1 mph 13.8 mph 92 % 0.00 in
21:34 48.2 °F 46.0 °F 29.73 in ENE 9.1 mph 11.5 mph 92 % 0.00 in
21:40 48.2 °F 46.0 °F 29.74 in East 8.8 mph 12.7 mph 92 % 0.00 in
21:45 48.2 °F 45.7 °F 29.74 in ENE 8.1 mph 12.7 mph 91 % 0.00 in
21:50 48.2 °F 45.7 °F 29.74 in East 8.8 mph 14.0 mph 91 % 0.00 in
21:55 48.2 °F 45.4 °F 29.74 in ENE 8.9 mph 12.7 mph 90 % 0.00 in
22:00 48.3 °F 45.5 °F 29.74 in ENE 9.4 mph 13.8 mph 90 % 0.00 in
22:05 48.3 °F 45.5 °F 29.74 in ENE 8.0 mph 11.5 mph 90 % 0.00 in
22:10 48.3 °F 45.5 °F 29.74 in ENE 8.6 mph 13.0 mph 90 % 0.00 in
22:15 48.2 °F 45.4 °F 29.74 in NE 7.4 mph 9.2 mph 90 % 0.00 in
22:20 48.2 °F 45.4 °F 29.74 in ENE 6.3 mph 12.7 mph 90 % 0.00 in
22:25 48.2 °F 45.4 °F 29.73 in ENE 8.4 mph 15.0 mph 90 % 0.00 in
22:31 48.2 °F 45.4 °F 29.73 in ENE 8.8 mph 14.0 mph 90 % 0.00 in
22:36 48.2 °F 45.4 °F 29.73 in ENE 9.2 mph 13.0 mph 90 % 0.00 in
22:41 48.2 °F 45.7 °F 29.73 in ENE 6.1 mph 10.4 mph 91 % 0.00 in
22:46 48.2 °F 45.7 °F 29.73 in ENE 9.3 mph 12.7 mph 91 % 0.00 in
22:51 48.2 °F 45.7 °F 29.72 in ENE 5.0 mph 10.4 mph 91 % 0.00 in
22:56 48.2 °F 45.7 °F 29.72 in East 7.3 mph 11.5 mph 91 % 0.00 in
23:01 48.2 °F 45.7 °F 29.73 in ENE 8.3 mph 11.5 mph 91 % 0.00 in
23:06 48.2 °F 45.7 °F 29.73 in NE 6.3 mph 10.4 mph 91 % 0.00 in
23:11 48.1 °F 45.6 °F 29.72 in ENE 7.5 mph 12.7 mph 91 % 0.00 in
23:16 48.1 °F 45.9 °F 29.73 in ENE 10.0 mph 15.0 mph 92 % 0.00 in
23:22 48.0 °F 45.5 °F 29.72 in ENE 4.2 mph 9.2 mph 91 % 0.00 in
23:37 47.9 °F 45.4 °F 29.72 in ENE 6.0 mph 11.5 mph 91 % 0.00 in
23:42 47.9 °F 45.4 °F 29.73 in East 8.3 mph 11.5 mph 91 % 0.00 in
23:47 48.0 °F 45.5 °F 29.72 in ENE 5.2 mph 10.4 mph 91 % 0.00 in
23:52 48.0 °F 45.5 °F 29.73 in ENE 6.4 mph 10.4 mph 91 % 0.00 in
23:57 48.0 °F 45.5 °F 29.73 in ENE 7.2 mph 11.5 mph 91 % 0.00 in
Crab Meadow Weather
Compliments of Weather Underground - 2.75 mb

Script developed by  Jim McMurry - jmcmurry@mwt.net Adapted for the template by  Wim van der Kuil - Leuven-Template.eu

Astronomy: It takes Saturn exactly 29.46 years to travel once around the Sun.